Flag for Germany Weather past 2 weeks in Jülich, North Rhine-Westphalia, Germany

Now
65 °F

Thunderstorms. Partly sunny.


Feels Like: 65 °F
Forecast: 59 / 78 °F
Wind: 1 mph from West

Location: Noervenich

Current Time: Jul 5, 2015 at 8:53:41 AM

Latest Report: Jul 5, 2015 at 7:00 AM


Visibility: 19 mi

Pressure: 30.09 "Hg

Humidity: 85%

Dew point: 60 °F

Location of JülichLocation

Historic Weather in Jülich — Graph

°F

Jülich temperature yesterday

Maximum temperature yesterday: 96 °F (at 4:00 PM)
Minimum temperature yesterday: 71 °F (at 6:00 AM)
Average temperature yesterday: 85 °F

Past Weeks' High & Low Weather Summary

 TemperatureHumidityPressure
High98 °F (Jul 2, 4:00 PM)96% (Jun 23, 12:00 AM)30.25 "Hg (Jun 23, 12:00 AM)
Low49 °F (Jun 23, 12:00 AM)25% (Jun 30, 6:00 PM)29.70 "Hg (Jun 22, 9:00 PM)
Average68 °F65%30.08 "Hg
* Reported Jun 20 7:00 AM — Jul 5 7:00 AM, Jülich, Weather by CustomWeather, © 2015

Note: Actual official high and low records may vary slightly from our data, if they occured in-between our weather recording intervals... More about our weather records

Advertising

Jülich weather history for previous 24 hours

 ConditionsComfort  
Time TempWeatherWind HumidityBarometerVisibility
7:00 AM
Sun, Jul 5
65 °FThunderstorms. Partly sunny.1 mph85%30.09 "Hg19 mi
4:00 AM69 °FPassing clouds.2 mph65%30.11 "Hg19 mi
3:00 AM70 °FPassing clouds.2 mph68%30.13 "Hg19 mi
2:00 AM72 °FClear.3 mph66%30.12 "Hg16 mi
1:00 AM75 °FClear.3 mph61%30.11 "Hg16 mi
12:00 AM80 °FOvercast.3 mph53%30.10 "Hg16 mi
10:00 PM
Sat, Jul 4
86 °FOvercast.2 mph46%30.06 "Hg16 mi
9:00 PM88 °FOvercast.1 mph45%30.06 "Hg19 mi
8:00 PM92 °FOvercast.1 mph38%30.06 "Hg19 mi
7:00 PM94 °FPartly sunny.2 mph35%30.06 "Hg19 mi
6:00 PM96 °FScattered clouds.3 mph33%30.06 "Hg19 mi
4:00 PM96 °FPassing clouds.5 mph32%30.06 "Hg19 mi
3:00 PM96 °FPassing clouds.6 mph30%30.06 "Hg19 mi
2:00 PM94 °FScattered clouds.5 mph35%30.05 "Hg16 mi
1:00 PM94 °FPartly sunny.5 mph38%30.06 "Hg16 mi
12:00 PM91 °FOvercast.3 mph43%30.05 "Hg12 mi
10:00 AM85 °FOvercast.1 mph57%30.05 "Hg12 mi
9:00 AM82 °FPartly sunny.2 mph64%30.05 "Hg11 mi
Weather by CustomWeather, © 2015

See weather overviewHow to use our weather pages